TimeMST,TemperatureF,Dew PointF,Humidity,Sea Level PressureIn,VisibilityMPH,Wind Direction,Wind SpeedMPH,Gust SpeedMPH,PrecipitationIn,Events,Conditions,WindDirDegrees,DateUTC
12:15 AM,32.0,32.0,100,30.23,3.0,Calm,Calm,-,N/A,,Overcast,0,2012-12-09 07:15:00
12:35 AM,32.0,32.0,100,30.24,8.0,North,4.6,-,N/A,,Overcast,350,2012-12-09 07:35:00
12:55 AM,32.0,32.0,100,30.23,9.0,North,6.9,-,N/A,,Overcast,360,2012-12-09 07:55:00
1:35 AM,32.0,32.0,100,30.23,9.0,West,5.8,-,N/A,,Overcast,270,2012-12-09 08:35:00
1:55 AM,32.0,32.0,100,30.24,10.0,WNW,5.8,-,N/A,,Overcast,300,2012-12-09 08:55:00
2:15 AM,32.0,32.0,100,30.25,10.0,WNW,4.6,-,N/A,,Overcast,300,2012-12-09 09:15:00
2:35 AM,32.0,32.0,100,30.26,10.0,WNW,3.5,-,N/A,,Overcast,300,2012-12-09 09:35:00
2:55 AM,32.0,32.0,100,30.26,10.0,WNW,4.6,-,N/A,,Overcast,290,2012-12-09 09:55:00
3:15 AM,32.0,32.0,100,30.26,10.0,West,5.8,-,N/A,,Overcast,270,2012-12-09 10:15:00
3:35 AM,32.0,32.0,100,30.27,10.0,WNW,5.8,-,N/A,,Overcast,290,2012-12-09 10:35:00
3:55 AM,32.0,32.0,100,30.27,10.0,WNW,6.9,-,N/A,,Overcast,290,2012-12-09 10:55:00
4:35 AM,32.0,32.0,100,30.29,10.0,WNW,9.2,-,N/A,,Overcast,290,2012-12-09 11:35:00
4:55 AM,32.0,32.0,100,30.30,10.0,WNW,6.9,-,N/A,,Overcast,290,2012-12-09 11:55:00
5:15 AM,32.0,32.0,100,30.30,10.0,NW,5.8,-,N/A,,Overcast,310,2012-12-09 12:15:00
5:35 AM,32.0,32.0,100,30.30,10.0,WNW,5.8,-,N/A,,Overcast,300,2012-12-09 12:35:00
5:55 AM,32.0,32.0,100,30.31,10.0,NW,5.8,-,N/A,,Overcast,320,2012-12-09 12:55:00
6:15 AM,32.0,32.0,100,30.32,10.0,NNW,4.6,-,N/A,,Overcast,330,2012-12-09 13:15:00
6:35 AM,32.0,32.0,100,30.33,10.0,NW,5.8,-,N/A,,Overcast,310,2012-12-09 13:35:00
6:55 AM,32.0,32.0,100,30.34,10.0,NW,6.9,-,N/A,,Overcast,310,2012-12-09 13:55:00
7:15 AM,32.0,32.0,100,30.35,10.0,NW,5.8,-,N/A,,Overcast,310,2012-12-09 14:15:00
7:35 AM,30.2,30.2,100,30.35,10.0,NW,3.5,-,N/A,,Overcast,320,2012-12-09 14:35:00
7:55 AM,30.2,30.2,100,30.36,10.0,Calm,Calm,-,N/A,,Overcast,0,2012-12-09 14:55:00
8:15 AM,28.4,28.4,100,30.37,10.0,Calm,Calm,-,N/A,,Overcast,0,2012-12-09 15:15:00
8:35 AM,28.4,28.4,100,30.38,10.0,Calm,Calm,-,N/A,,Mostly Cloudy,0,2012-12-09 15:35:00
8:55 AM,28.4,28.4,100,30.39,10.0,Calm,Calm,-,N/A,,Partly Cloudy,0,2012-12-09 15:55:00
9:35 AM,30.2,30.2,100,30.41,10.0,WSW,3.5,-,N/A,,Clear,250,2012-12-09 16:35:00
9:55 AM,32.0,30.2,93,30.42,10.0,West,3.5,-,N/A,,Clear,280,2012-12-09 16:55:00
10:15 AM,32.0,28.4,87,30.42,10.0,Calm,Calm,-,N/A,,Clear,0,2012-12-09 17:15:00
10:35 AM,32.0,26.6,80,30.43,10.0,Calm,Calm,-,N/A,,Clear,0,2012-12-09 17:35:00
10:55 AM,32.0,28.4,87,30.44,10.0,West,3.5,-,N/A,,Clear,280,2012-12-09 17:55:00
11:15 AM,32.0,26.6,80,30.43,10.0,WNW,3.5,-,N/A,,Clear,290,2012-12-09 18:15:00
11:55 AM,35.6,24.8,65,30.42,9.0,WSW,3.5,-,N/A,,Clear,250,2012-12-09 18:55:00
12:15 PM,35.6,21.2,56,30.40,10.0,Calm,Calm,-,N/A,,Clear,0,2012-12-09 19:15:00
12:35 PM,35.6,19.4,52,30.41,10.0,SW,4.6,-,N/A,,Clear,230,2012-12-09 19:35:00
12:55 PM,35.6,19.4,52,30.40,10.0,SW,4.6,-,N/A,,Clear,220,2012-12-09 19:55:00
1:15 PM,35.6,19.4,52,30.41,10.0,Calm,Calm,-,N/A,,Clear,0,2012-12-09 20:15:00
1:35 PM,35.6,21.2,56,30.40,10.0,Calm,Calm,-,N/A,,Clear,0,2012-12-09 20:35:00
1:55 PM,35.6,21.2,56,30.39,10.0,WNW,3.5,-,N/A,,Mostly Cloudy,300,2012-12-09 20:55:00
2:15 PM,35.6,19.4,52,30.39,10.0,WNW,3.5,-,N/A,,Overcast,300,2012-12-09 21:15:00
2:35 PM,35.6,21.2,56,30.40,10.0,NNW,3.5,-,N/A,,Overcast,340,2012-12-09 21:35:00
2:55 PM,35.6,21.2,56,30.39,10.0,Calm,Calm,-,N/A,,Overcast,0,2012-12-09 21:55:00
3:15 PM,35.6,21.2,56,30.40,10.0,North,4.6,-,N/A,,Overcast,360,2012-12-09 22:15:00
3:35 PM,35.6,21.2,56,30.40,10.0,NE,5.8,-,N/A,,Mostly Cloudy,50,2012-12-09 22:35:00
3:55 PM,35.6,21.2,56,30.40,10.0,NE,4.6,-,N/A,,Scattered Clouds,50,2012-12-09 22:55:00
4:15 PM,35.6,21.2,56,30.39,10.0,ENE,4.6,-,N/A,,Mostly Cloudy,70,2012-12-09 23:15:00
4:35 PM,35.6,21.2,56,30.39,10.0,NE,4.6,-,N/A,,Overcast,50,2012-12-09 23:35:00
4:55 PM,35.6,21.2,56,30.39,10.0,Calm,Calm,-,N/A,,Overcast,0,2012-12-09 23:55:00
5:15 PM,35.6,21.2,56,30.38,10.0,Calm,Calm,-,N/A,,Overcast,0,2012-12-10 00:15:00
5:55 PM,35.6,21.2,56,30.38,10.0,Calm,Calm,-,N/A,,Overcast,0,2012-12-10 00:55:00
6:15 PM,35.6,24.8,65,30.37,10.0,Calm,Calm,-,N/A,,Overcast,0,2012-12-10 01:15:00
6:35 PM,33.8,24.8,70,30.37,10.0,Calm,Calm,-,N/A,,Overcast,0,2012-12-10 01:35:00
6:55 PM,33.8,24.8,70,30.37,10.0,Calm,Calm,-,N/A,,Overcast,0,2012-12-10 01:55:00
7:15 PM,32.0,24.8,75,30.37,10.0,Calm,Calm,-,N/A,,Overcast,0,2012-12-10 02:15:00
7:35 PM,33.8,24.8,70,30.36,10.0,Calm,Calm,-,N/A,,Overcast,0,2012-12-10 02:35:00
8:15 PM,33.8,26.6,75,30.36,10.0,Calm,Calm,-,N/A,,Overcast,0,2012-12-10 03:15:00
8:35 PM,32.0,28.4,87,30.35,10.0,SE,3.5,-,N/A,,Overcast,140,2012-12-10 03:35:00
8:55 PM,32.0,30.2,93,30.35,10.0,SE,3.5,-,N/A,,Overcast,130,2012-12-10 03:55:00
9:15 PM,32.0,30.2,93,30.35,10.0,SE,3.5,-,N/A,,Overcast,140,2012-12-10 04:15:00
9:35 PM,32.0,30.2,93,30.34,10.0,SSE,4.6,-,N/A,,Overcast,160,2012-12-10 04:35:00
9:55 PM,33.8,28.4,81,30.34,10.0,SE,3.5,-,N/A,,Overcast,140,2012-12-10 04:55:00
10:15 PM,33.8,26.6,75,30.34,10.0,SE,3.5,-,N/A,,Overcast,130,2012-12-10 05:15:00
10:35 PM,33.8,28.4,81,30.32,10.0,SE,3.5,-,N/A,,Overcast,140,2012-12-10 05:35:00
10:55 PM,33.8,28.4,81,30.32,10.0,SE,4.6,-,N/A,,Overcast,130,2012-12-10 05:55:00
11:15 PM,33.8,28.4,81,30.31,10.0,ESE,5.8,-,N/A,,Overcast,110,2012-12-10 06:15:00
11:35 PM,32.0,28.4,87,30.30,10.0,East,6.9,-,N/A,,Overcast,100,2012-12-10 06:35:00
11:55 PM,32.0,28.4,87,30.30,10.0,ESE,5.8,-,N/A,,Overcast,110,2012-12-10 06:55:00